Theta_e
313 313 315 313 313 313 313 312 312 310 310 311 311 310 312 312 313 313 312 313 314 314 314 315 315 315 315 315 315 315 315 316 313 313 316 316 316 315 312 313 312 310 309
313 313 315 313 313 313 313 312 312 312 312 312 311 310 311 311 312 314 313 313 314 313 314 314 315 316 315 315 315 315 316 316 315 314 316 316 315 314 313 313 312 313 312
313 314 315 315 313 313 313 313 314 314 313 311 310 311 312 311 311 314 312 312 313 313 313 314 314 314 314 315 315 316 315 314 315 315 314 315 314 313 312 313 314 314 314
314 314 314 315 315 314 313 313 315 315 315 313 313 311 308 309 312 314 312 311 311 311 311 313 311 311 313 314 315 315 315 314 313 313 313 314 314 314 314 315 315 315 315
313 314 314 314 315 314 314 312 314 315 314 314 313 311 307 310 310 312 314 313 314 313 313 313 314 313 313 313 313 315 314 314 314 313 313 313 314 315 315 315 315 315 315
313 314 314 314 311 312 312 312 313 315 314 313 313 312 308 308 308 311 313 314 315 315 312 313 311 311 309 312 313 313 312 315 314 314 313 313 313 314 315 315 313 312 308
313 313 314 314 315 313 312 313 312 314 314 313 313 312 311 308 308 309 309 311 312 311 313 313 314 312 310 309 313 313 313 311 312 312 313 314 314 315 314 310 308 308 310
312 313 314 314 315 314 314 314 313 313 314 315 314 312 311 312 309 308 307 308 310 311 311 313 313 313 313 309 312 314 313 313 313 312 312 311 312 309 309 307 305 309 310
312 313 313 314 315 314 313 314 314 315 314 313 314 314 314 312 312 311 309 308 308 310 311 312 313 312 312 307 308 311 312 310 309 313 312 311 311 310 310 306 307 306 305
314 312 313 314 315 315 314 313 314 314 315 315 312 314 314 312 313 312 311 311 308 307 308 311 311 312 306 306 305 305 306 303 304 304 309 308 307 310 311 311 306 308 305
315 314 313 315 315 314 313 315 314 314 315 314 315 315 314 314 311 312 312 312 312 308 307 310 311 308 307 306 305 305 305 306 304 305 307 308 311 310 309 310 311 309 308
315 315 314 314 315 315 315 315 314 314 314 314 315 314 314 314 315 314 312 312 313 312 307 307 310 308 308 308 307 306 305 306 306 306 307 307 308 309 310 311 312 311 309
315 315 315 315 316 314 315 315 314 314 315 314 314 313 314 313 312 314 315 311 312 313 310 306 306 309 310 311 309 308 307 308 308 307 307 306 307 306 306 308 311 312 312
315 314 314 312 314 314 315 315 315 315 315 314 313 314 315 313 311 310 312 314 311 312 312 306 304 305 305 307 309 310 310 310 310 309 308 308 307 307 305 305 307 307 311
311 311 310 310 312 313 314 314 315 314 315 316 315 314 314 315 313 310 309 310 311 311 312 307 307 307 306 306 306 306 305 306 306 306 308 310 308 308 304 306 308 308 308
311 311 310 310 311 311 312 314 315 315 315 315 315 315 314 314 314 312 310 308 312 311 311 307 306 302 302 302 302 302 303 305 308 310 310 310 309 307 304 305 306 304 304
309 308 308 310 311 310 311 310 312 315 314 315 315 313 314 313 314 313 313 309 312 313 309 306 302 301 302 302 303 303 305 306 309 312 311 311 308 303 304 305 305 304 304
308 305 304 305 308 308 309 309 310 313 314 314 315 315 314 313 313 313 313 308 308 307 304 302 302 302 302 302 302 305 307 307 308 309 308 305 303 303 304 304 304 304 304
305 304 303 303 304 307 308 308 310 311 313 314 315 314 314 313 312 312 312 308 306 304 303 303 303 303 304 303 304 305 307 308 307 305 304 303 302 302 302 304 304 303 303
302 303 303 303 304 307 308 309 309 309 310 312 314 314 313 313 313 313 310 308 306 306 305 305 305 305 305 305 305 306 308 307 305 304 304 302 302 303 304 303 302 303 303
302 302 303 305 306 307 308 308 309 308 311 312 312 311 313 313 312 312 312 311 309 307 308 308 308 308 307 307 306 307 308 307 305 304 303 302 301 301 302 303 302 302 303
301 302 303 304 302 303 304 304 304 303 303 305 308 312 311 312 313 313 311 311 312 312 313 310 310 311 310 309 308 307 307 306 306 305 303 302 302 302 301 301 301 301 302
301 301 301 300 299 299 300 300 302 302 302 303 303 305 310 312 312 312 312 313 312 312 312 312 312 312 311 310 309 308 307 306 305 305 304 303 302 301 300 300 300 301 301
298 299 299 298 298 297 298 298 298 299 300 302 302 303 304 307 312 313 313 313 313 313 312 312 312 313 313 310 309 309 308 306 305 305 305 303 302 301 300 299 299 299 300
299 298 298 297 297 297 298 298 298 298 298 299 300 302 304 306 308 310 311 312 313 313 313 312 312 313 313 312 311 311 309 307 306 305 304 303 302 301 300 298 298 298 299
299 298 298 297 297 297 297 297 296 297 297 297 298 300 303 306 308 309 311 311 312 314 313 313 313 313 313 312 313 312 310 307 306 305 304 304 302 300 300 299 298 296 297
Wind_Speed
9 9 6 5 4 4 6 5 5 2 7 7 8 9 10 11 10 11 10 11 9 8 13 16 17 9 10 12 10 12 13 18 12 6 9 9 9 10 8 8 9 9 8
9 9 7 5 7 8 9 9 8 6 8 11 6 7 9 11 12 12 8 9 9 8 11 13 17 18 18 13 13 16 16 15 19 11 11 9 9 8 7 7 8 8 8
9 9 9 9 10 11 11 13 11 9 6 5 3 8 8 8 9 10 7 10 8 8 10 11 13 14 16 16 14 14 13 13 14 15 8 7 6 9 7 6 6 7 9
12 10 11 12 11 12 11 12 11 10 9 4 6 6 8 2 5 9 7 9 12 10 11 14 14 15 13 13 13 12 12 12 11 10 7 6 4 5 5 4 6 9 10
16 14 10 11 11 12 12 11 11 9 8 6 4 6 4 2 5 6 5 6 7 6 6 8 10 10 11 12 9 9 9 9 10 8 7 4 5 5 7 5 5 4 7
17 13 10 10 8 8 10 12 9 8 8 7 5 3 4 2 3 4 4 5 5 5 3 4 6 6 6 6 7 6 5 6 6 5 4 4 4 5 5 5 3 2 3
18 15 12 11 10 10 11 11 12 10 8 7 4 4 5 4 1 2 4 5 3 5 4 3 2 4 6 5 5 3 3 3 4 3 3 3 3 4 3 3 3 3 4
21 18 14 12 10 10 9 7 7 9 9 8 7 6 7 6 4 3 4 4 4 2 4 2 2 3 4 4 2 2 3 4 3 1 0 1 1 1 2 4 3 4 4
24 20 18 13 11 11 9 9 11 8 9 11 9 9 12 11 11 8 6 5 5 3 6 5 7 4 3 3 2 1 1 1 1 5 5 3 3 4 4 3 5 3 2
26 21 15 14 13 12 12 11 10 12 9 8 12 10 10 11 12 13 11 10 8 7 6 5 4 3 1 2 4 4 3 3 3 4 5 7 8 10 10 9 6 6 2
23 23 19 15 15 15 17 16 17 12 7 14 13 13 14 14 13 13 14 13 11 9 8 6 5 5 3 3 5 5 4 4 3 3 3 5 7 13 15 14 13 11 7
19 18 19 16 17 17 17 17 15 13 12 14 13 15 14 15 17 17 16 17 14 12 11 9 8 10 8 7 7 7 6 6 6 5 6 3 3 2 2 8 14 15 14
15 14 13 16 17 21 21 18 16 15 12 14 11 12 14 15 13 17 19 18 17 17 13 12 12 11 13 13 13 10 9 9 9 9 8 5 3 4 6 9 11 16 18
15 7 7 17 22 17 17 18 15 12 15 17 15 14 15 15 11 9 13 18 19 19 16 12 13 15 16 16 14 10 10 11 12 13 13 12 11 11 10 10 11 12 15
18 13 13 14 16 18 12 14 19 16 15 19 20 18 16 16 14 10 10 13 19 20 16 15 14 14 16 16 15 14 14 14 16 20 21 20 17 14 12 9 6 5 8
18 18 15 10 14 14 14 12 11 16 11 12 16 16 12 14 17 14 12 13 13 16 17 17 16 15 15 16 16 16 15 14 19 19 19 18 16 15 13 10 10 8 9
15 18 18 16 14 13 11 15 17 14 14 13 13 14 11 12 14 15 17 16 15 17 18 19 18 16 15 15 15 14 15 14 10 13 15 16 15 15 14 11 9 8 9
15 17 20 19 15 14 13 12 18 17 14 16 16 8 7 11 11 10 11 15 17 21 22 21 21 18 15 15 14 13 13 15 13 12 12 12 14 14 12 12 10 8 7
18 20 23 21 19 12 12 12 15 15 16 18 18 13 8 13 9 11 11 20 25 24 23 21 21 20 17 14 13 13 14 14 15 14 13 13 11 13 12 11 9 8 8
23 22 22 21 19 13 10 11 14 15 14 13 11 12 9 12 12 12 14 19 25 26 23 23 21 18 15 14 13 13 13 14 18 17 16 14 13 11 10 10 9 9 9
20 23 23 21 18 15 10 10 12 15 15 14 12 10 6 8 10 13 15 15 20 21 21 22 22 21 19 18 15 14 14 20 23 22 19 17 15 14 13 13 13 12 11
15 15 15 14 14 14 13 12 13 15 17 15 16 14 12 11 10 14 15 14 14 14 14 11 14 17 20 21 19 18 17 21 26 25 22 19 17 16 16 15 14 13 13
23 22 20 16 17 18 17 16 15 15 17 18 16 17 13 13 15 17 14 10 11 11 9 7 12 18 17 19 19 19 21 22 22 25 24 21 18 18 18 17 15 14 14
19 15 14 14 16 16 15 15 15 16 17 17 17 16 16 14 16 17 16 15 14 12 12 10 11 14 18 16 19 21 23 23 22 19 21 20 20 21 20 18 16 16 15
14 17 15 18 19 18 17 17 17 17 18 17 19 18 15 15 16 17 18 17 17 15 16 18 14 11 18 13 15 19 23 25 24 20 21 22 20 23 22 19 16 15 15
13 17 16 16 20 18 18 20 20 20 20 20 20 21 18 15 17 18 16 16 16 15 12 13 14 18 20 19 15 17 17 25 28 27 26 24 24 24 22 20 16 16 16
Wind_Direction
273 293 301 325 315 318 321 310 313 324 326 328 325 344 352 2 4 13 24 33 44 28 31 35 39 99 90 82 86 105 150 129 114 107 128 137 134 147 147 155 164 169 182
273 283 274 276 285 294 295 278 293 333 325 327 313 330 339 349 2 15 32 27 33 35 40 50 67 74 72 73 87 103 112 121 123 106 121 131 148 158 167 177 192 206 219
255 271 268 272 276 287 296 287 282 290 330 345 335 328 328 327 347 23 39 39 45 43 52 54 57 65 69 71 90 109 112 109 125 132 127 149 161 185 195 203 221 242 250
256 263 275 279 275 281 299 292 282 293 298 314 327 337 341 7 17 27 62 43 48 62 70 63 60 58 63 73 82 98 131 128 133 137 139 156 170 188 215 246 272 273 266
267 276 269 292 290 280 278 290 282 283 294 301 287 338 344 334 358 22 35 41 38 41 44 49 56 57 63 67 79 90 130 141 155 151 158 171 180 192 216 230 253 266 282
264 270 281 292 294 273 294 268 277 272 294 275 282 306 317 301 337 8 32 13 23 20 350 31 44 55 59 66 65 93 114 149 147 134 152 175 197 204 196 217 242 297 318
263 268 273 276 280 278 291 291 267 264 283 271 259 264 294 295 292 3 354 350 5 26 15 330 10 2 20 35 33 62 138 105 99 116 155 190 205 214 213 226 258 259 267
268 267 265 274 281 284 280 271 276 262 263 271 239 253 272 273 279 270 317 343 336 306 295 270 291 312 345 356 358 107 129 194 196 210 218 79 250 293 279 273 262 260 260
273 270 268 267 273 265 259 271 264 267 262 267 265 254 256 268 263 263 268 284 296 305 304 268 261 277 319 354 2 305 266 175 258 244 236 241 262 250 264 261 228 237 273
261 273 277 269 263 267 262 278 269 274 275 279 265 272 253 270 263 257 256 261 273 288 324 322 246 219 276 324 341 337 330 315 280 264 254 267 261 244 244 246 244 233 263
283 278 278 272 261 255 254 270 267 272 256 280 279 272 269 264 259 253 248 249 257 272 280 293 216 201 242 302 318 324 319 316 298 295 308 311 265 243 238 237 239 243 252
297 289 286 282 273 269 268 265 250 251 262 273 281 286 284 277 261 249 243 248 253 261 263 256 246 236 246 265 293 304 294 295 293 304 336 319 35 52 260 243 240 246 254
305 304 338 325 293 273 258 256 251 263 263 270 274 279 304 322 272 239 237 241 247 252 262 257 254 249 258 269 287 280 277 278 281 285 298 296 290 283 279 264 255 253 252
358 2 346 355 339 301 278 262 250 266 273 272 275 275 297 312 312 277 249 236 239 246 249 259 258 263 265 269 277 269 263 268 271 271 270 279 279 289 277 270 261 263 251
351 345 353 336 337 342 309 281 270 272 276 273 271 272 284 288 288 287 278 261 244 240 242 255 264 266 266 267 270 272 271 267 263 270 257 258 266 272 273 261 245 237 228
341 342 339 340 353 342 348 330 263 270 268 273 262 267 283 284 275 275 271 263 249 230 229 245 257 268 269 274 278 282 278 277 279 254 240 247 251 252 255 246 239 241 243
343 351 348 343 332 332 328 336 328 298 269 275 269 250 286 285 291 271 272 254 237 230 232 242 252 261 268 272 276 280 278 294 282 242 239 246 235 243 243 240 235 239 258
337 345 347 341 333 327 330 337 328 306 290 261 270 251 280 295 288 276 250 227 217 221 233 244 251 259 268 272 272 272 275 276 255 233 223 229 243 242 246 240 232 236 270
335 339 344 339 336 328 323 330 320 310 305 283 277 268 279 295 281 285 229 224 228 235 241 247 256 264 269 270 273 282 285 254 220 214 223 233 242 249 242 238 237 249 267
342 338 342 342 336 334 323 323 325 316 319 315 298 281 279 278 271 290 256 234 237 244 250 259 268 270 271 273 279 281 275 230 217 220 226 222 222 224 233 238 251 255 257
331 338 341 338 344 342 327 334 342 346 323 310 293 283 293 281 276 274 279 261 254 254 262 268 273 277 276 273 274 278 255 234 228 229 230 225 227 234 246 251 258 257 250
335 337 350 6 10 11 1 354 347 342 338 330 325 312 287 285 285 284 287 264 251 266 277 276 285 281 262 259 260 263 257 244 239 237 237 236 238 242 240 239 242 247 249
34 24 9 360 5 7 4 357 345 340 335 333 325 309 312 293 283 284 271 276 265 256 247 267 307 308 284 250 247 249 250 250 247 243 237 241 236 233 232 236 240 239 233
28 12 355 358 7 6 355 347 340 335 332 325 320 310 303 295 290 285 280 272 278 272 247 249 282 302 296 255 243 245 246 253 252 248 238 236 242 231 227 234 237 237 241
12 11 9 12 3 354 348 344 338 334 330 325 320 311 305 302 291 288 284 276 278 275 262 254 259 258 284 293 279 271 253 250 248 241 232 233 233 229 230 233 239 235 235
7 7 0 4 3 357 353 349 342 338 335 331 325 320 311 293 291 290 285 276 267 264 271 262 251 249 250 257 265 275 266 248 246 242 237 234 229 230 235 237 243 241 238